sat.trackr.live / text

‹ back to catalog

STARLINK-4284

NORAD 53023 · 2022-076AP

PAYLOAD ACTIVE UNKNOWN

§ Identity

Operator
Country
US
Launch date
2022-07-07
Launch site
AFETR
Launch vehicle
Mass (kg)
RCS (m²)

Purposes: comms

External: N2YO · Heavens-Above · Gunter

§ Orbital elements

Epoch: 2026-05-25T04:02:08.006208Z

Period
95.44 min
Inclination
53.2128°
Eccentricity
0.0001513
Mean motion
15.08832709 rev/d
Perigee alt
538.7 km
Apogee alt
540.8 km
Semi-major
6,917.9 km
B*
2.5874e-5
RAAN
100.7850°
Arg perigee
72.4167°
Mean anomaly
287.6990°
Rev number
21,453

§ Raw data

STARLINK-42841 53023U 22076AP  26145.16814822  .00000124  00000+0  25874-4 0  99962 53023  53.2128 100.7850 0001513  72.4167 287.6990 15.08832709214533

JSON: /api/v1/satellites/53023 · /tle

For live sub-satellite position, see the globe view (requires WebGL).

§ Visibility from observer

Set your observer location to see the next 7 days of passes ≥ 10°. The values pass through the URL so the page stays shareable.

No JS? Fill the form by hand. The geolocation button needs JavaScript.